1532872800.76,30113,22.81,74366.8,20.49,9.81,9.89,0,*4A
1532872802.02,30114,22.81,74366.8,20.47,10.69,10.71,0,*42
1532872803.25,30115,22.81,74364.8,20.45,10.71,10.83,0,*45
1532872804.47,30116,22.81,74370.0,20.45,10.51,10.71,0,*49
1532872805.7,30117,22.81,74366.3,20.43,9.89,9.99,0,*4D
1532872806.93,30118,22.81,74366.8,20.43,9.89,9.99,0,*42
1532872808.13,30119,22.81,74364.8,20.37,10.17,10.17,0,*41
1532872809.37,30120,22.81,74364.8,20.33,11.03,11.23,0,*4D
1532872810.6,30121,22.81,74364.3,20.33,10.99,11.13,0,*4D
1532872811.79,30122,22.81,74362.0,20.33,9.99,10.09,0,*7C
1532872813.01,30123,22.81,74362.3,20.31,9.91,10.09,0,*77
1532872814.25,30124,22.81,74366.0,20.29,9.39,9.49,0,*47
1532872815.45,30125,22.81,74366.8,20.27,9.29,9.35,0,*42
1532872816.71,30126,22.81,74362.0,20.25,10.37,10.57,0,*48
1532872817.96,30127,22.81,74362.5,20.21,10.09,10.23,0,*43
1532872819.19,30128,22.81,74362.5,20.21,10.41,10.51,0,*45
1532872820.45,30129,22.81,74364.3,20.21,10.95,11.07,0,*4F
1532872821.7,30130,22.81,74364.8,20.17,10.93,11.07,0,*44
1532872822.93,30131,22.81,74366.5,20.15,9.49,9.61,0,*41
1532872824.17,30132,22.81,74362.3,20.13,9.11,9.07,0,*49
1532872825.41,30133,22.81,74362.0,20.09,9.89,10.09,0,*74
1532872826.64,30134,22.81,74362.8,20.07,10.19,10.37,0,*41
1532872827.88,30135,22.81,74362.3,20.07,10.19,10.37,0,*40
1532872829.1,30136,22.81,74362.3,20.03,9.89,10.09,0,*7B
1532872830.33,30137,22.81,74364.3,20.03,10.13,10.23,0,*49
1532872831.57,30138,22.81,74364.0,20.03,10.19,10.31,0,*4F
1532872832.8,30139,22.81,74366.0,19.99,10.31,10.47,0,*4C
1532872834.05,30140,22.81,74364.5,19.99,10.27,10.31,0,*44
1532872835.27,30141,22.81,74364.0,19.93,10.33,10.47,0,*4B
1532872836.51,30142,22.81,74366.5,19.93,10.99,11.09,0,*43
1532872837.75,30143,22.81,74362.8,19.93,10.55,10.61,0,*4D
1532872838.96,30144,22.81,74360.8,19.89,9.99,10.09,0,*77
1532872840.2,30145,22.81,74364.5,19.89,10.47,10.65,0,*47
1532872841.45,30146,22.81,74362.5,19.89,10.17,10.27,0,*47
1532872842.69,30147,22.81,74362.8,19.85,9.85,10.03,0,*7F
1532872843.91,30148,22.81,74366.5,19.85,10.33,10.43,0,*41
1532872845.12,30149,22.81,74366.0,19.83,10.19,10.33,0,*49
1532872846.38,30150,22.81,74364.0,19.81,9.77,9.77,0,*4B
1532872847.59,30151,22.81,74364.3,19.77,9.07,9.03,0,*47
1532872848.8,30152,22.81,74362.3,19.77,8.61,8.61,0,*40
1532872850.04,30153,22.81,74360.0,19.69,9.07,9.19,0,*41
1532872851.24,30154,22.81,74360.0,19.67,9.39,9.47,0,*4E
1532872852.49,30155,22.81,74360.0,19.67,9.81,9.81,0,*46
1532872853.72,30156,22.81,74360.5,19.63,9.71,9.77,0,*47
1532872854.95,30157,22.81,74360.3,19.63,9.03,9.11,0,*43
1532872856.19,30158,22.81,74362.8,19.59,8.93,8.97,0,*42
1532872857.4,30159,22.81,74364.8,19.55,9.25,9.33,0,*4C
1532872858.6,30160,22.81,74366.0,19.53,9.61,9.67,0,*41
1532872859.81,30161,22.81,74368.5,19.49,9.53,9.43,0,*4C
1532872861.05,30162,22.81,74366.5,19.49,9.01,9.01,0,*4E
1532872862.29,30163,22.81,74362.8,19.45,9.49,9.49,0,*43
1532872863.53,30164,22.81,74362.8,19.45,9.81,9.77,0,*4D
1532872864.74,30165,22.81,74362.3,19.43,9.33,9.33,0,*43
1532872865.94,30166,22.81,74360.3,19.41,8.45,8.33,0,*43
1532872867.19,30167,22.81,74364.0,19.39,9.61,9.61,0,*4C
1532872868.43,30168,22.81,74366.8,19.35,9.47,9.49,0,*41
1532872869.62,30169,22.81,74364.3,19.33,9.67,9.75,0,*4B
1532872870.81,30170,22.81,74366.0,19.33,9.33,9.43,0,*47
1532872871.99,30171,22.81,74366.5,19.33,7.33,7.41,0,*44
1532872873.22,30172,22.81,74366.5,19.25,6.65,6.79,0,*48
1532872874.39,30173,22.81,74364.5,19.23,8.45,8.87,0,*4C
1532872875.64,30174,22.81,74364.8,19.21,8.47,8.89,0,*45
1532872876.87,30175,22.81,74360.0,19.21,8.65,9.01,0,*45
1532872878.07,30176,22.81,74356.0,19.19,8.45,8.97,0,*41
1532872879.27,30177,22.81,74360.8,19.17,8.23,8.79,0,*4E
1532872880.45,30178,22.81,74358.3,19.15,8.23,8.83,0,*46
1532872881.69,30179,22.81,74360.3,19.11,7.87,8.55,0,*49
1532872882.87,30180,22.81,74360.8,19.11,7.37,8.19,0,*4C
1532872884.08,30181,22.81,74362.5,19.07,7.15,8.15,0,*46
1532872885.26,30182,22.81,74360.5,19.03,7.79,8.87,0,*40
1532872886.53,30183,22.81,74362.8,19.01,7.95,8.89,0,*4F
1532872887.75,30184,22.81,74360.8,18.99,8.09,8.89,0,*42
1532872888.94,30185,22.81,74364.0,18.97,8.27,9.03,0,*42
1532872890.13,30186,22.81,74362.3,18.97,8.19,8.79,0,*40
1532872891.34,30187,22.81,74364.0,18.93,8.23,8.75,0,*40
1532872892.55,30188,22.81,74364.3,18.91,6.97,7.29,0,*4A
1532872893.77,30189,22.81,74364.3,18.85,7.19,7.37,0,*46
1532872894.98,30190,22.81,74360.0,18.85,8.13,8.45,0,*41
1532872896.22,30191,22.81,74364.0,18.79,7.87,8.09,0,*49
1532872897.4,30192,22.81,74362.3,18.77,7.97,8.15,0,*48
1532872898.61,30193,22.81,74368.3,18.75,8.15,8.27,0,*4F
1532872899.85,30194,22.81,74368.3,18.71,8.19,8.29,0,*4E
1532872901.08,30195,22.81,74368.5,18.71,8.29,8.45,0,*46
1532872902.29,30196,22.81,74364.8,18.69,8.93,9.03,0,*4E
1532872903.5,30197,22.81,74362.3,18.69,8.93,9.03,0,*4F
1532872904.68,30198,22.81,74362.3,18.63,8.15,8.05,0,*43
1532872905.94,30199,22.81,74356.5,18.65,8.37,8.33,0,*41
1532872907.17,30200,22.81,74360.0,18.63,8.59,8.37,0,*48
1532872908.4,30201,22.81,74362.3,18.57,8.27,7.87,0,*43
1532872909.63,30202,22.81,74360.8,18.59,8.29,7.87,0,*40
1532872910.82,30203,22.81,74362.3,18.53,8.61,8.23,0,*46
1532872912.05,30204,22.81,74360.0,18.55,7.69,7.27,0,*4B
1532872913.27,30205,22.81,74362.5,18.53,7.23,6.93,0,*4C
1532872914.45,30206,22.81,74364.0,18.51,7.45,7.33,0,*46
1532872915.65,30207,22.81,74366.0,18.51,7.19,7.29,0,*45
1532872916.86,30208,22.81,74360.3,18.51,5.93,6.21,0,*43
1532872918.06,30209,22.81,74360.5,18.47,6.03,6.73,0,*48
1532872919.26,30210,22.81,74360.0,18.47,5.33,6.51,0,*40
1532872920.45,30211,22.81,74360.3,18.47,5.11,6.57,0,*47
1532872921.69,30212,22.81,74358.5,18.45,3.41,5.19,0,*4C
1532872922.92,30213,22.81,74358.8,18.45,3.11,5.45,0,*41
1532872924.15,30214,22.81,74366.3,18.43,3.07,5.93,0,*4C
1532872925.36,30215,22.81,74360.8,18.41,3.25,6.29,0,*4D
1532872926.58,30216,22.81,74360.8,18.37,2.55,5.49,0,*4C
1532872927.79,30217,22.81,74360.8,18.35,3.29,6.21,0,*48
1532872929.01,30218,22.81,74362.3,18.35,3.93,6.53,0,*43
1532872930.24,30219,22.81,74362.3,18.33,4.31,6.65,0,*4E
1532872931.44,30220,22.81,74364.0,18.31,5.49,7.59,0,*46
1532872932.66,30221,22.81,74370.3,18.31,5.51,7.09,0,*4B
1532872933.87,30222,22.81,74362.5,18.31,5.19,6.33,0,*4C
1532872935.07,30223,22.81,74364.8,18.29,5.11,6.17,0,*4A
1532872936.31,30224,22.81,74362.3,18.27,6.47,7.29,0,*4F
1532872937.54,30225,22.81,74364.0,18.27,6.61,7.45,0,*40
1532872938.74,30226,22.81,74360.0,18.27,5.15,6.07,0,*44
1532872939.93,30227,22.81,74360.5,18.25,4.49,5.67,0,*4A
1532872941.11,30228,22.81,74360.5,18.25,4.49,6.21,0,*44
1532872942.34,30229,22.81,74358.0,18.23,3.97,6.21,0,*47
1532872943.55,30230,22.81,74362.8,18.23,4.37,6.75,0,*43
1532872944.78,30231,22.81,74362.0,18.23,4.71,7.09,0,*4A
1532872945.98,30232,22.81,74360.3,18.23,4.45,7.09,0,*4E
1532872947.21,30233,22.81,74364.5,18.23,3.85,6.87,0,*43
1532872948.41,30234,22.81,74364.8,18.21,3.55,6.65,0,*47
1532872949.64,30235,22.81,74366.0,18.19,4.05,6.93,0,*46
1532872950.9,30236,22.81,74364.3,18.19,4.97,7.19,0,*4D
1532872952.09,30237,22.81,74360.3,18.17,5.41,7.29,0,*4B
1532872953.31,30238,22.81,74360.3,18.13,6.47,7.79,0,*40
1532872954.52,30239,22.81,74362.3,18.17,7.15,8.15,0,*46
1532872955.73,30240,22.81,74360.5,18.11,7.45,8.01,0,*4E
1532872956.94,30241,22.81,74362.0,18.09,7.51,7.87,0,*42
1532872958.16,30242,22.81,74360.8,18.07,8.15,8.27,0,*45
1532872959.37,30243,22.81,74362.3,18.07,8.19,7.97,0,*4C
1532872960.61,30244,22.81,74360.0,18.07,7.79,7.47,0,*4F
1532872961.81,30245,22.81,74358.8,18.07,7.41,7.41,0,*43
1532872963.04,30246,22.81,74356.0,18.07,6.79,6.73,0,*4A
1532872964.27,30247,22.81,74358.3,18.05,6.47,6.73,0,*44
1532872965.48,30248,22.81,74352.3,18.05,6.57,7.05,0,*4A
1532872966.69,30249,22.81,74356.5,18.05,5.67,6.35,0,*49
1532872967.89,30250,22.81,74358.8,18.01,5.95,6.83,0,*45
1532872969.11,30251,22.81,74360.8,18.01,6.17,7.33,0,*47
1532872970.34,30252,22.81,74362.8,18.01,6.17,7.41,0,*41
1532872971.54,30253,22.81,74360.8,17.99,6.17,7.55,0,*4B
1532872972.75,30254,22.81,74366.3,17.99,6.65,8.01,0,*47
1532872973.95,30255,22.81,74366.0,17.97,5.59,6.93,0,*41
1532872975.16,30256,22.81,74364.3,17.95,5.95,7.11,0,*4B
1532872976.36,30257,22.81,74362.3,17.91,5.81,6.83,0,*41
1532872977.57,30258,22.81,74360.5,17.87,6.73,7.51,0,*49
1532872978.77,30259,22.81,74362.0,17.83,7.01,7.73,0,*48
1532872979.97,30260,22.81,74364.0,17.83,6.47,7.05,0,*40
1532872981.19,30261,22.81,74362.8,17.79,6.35,6.83,0,*4E
1532872982.37,30262,22.81,74364.3,17.79,6.93,7.37,0,*4F
1532872983.58,30263,22.81,74360.0,17.75,7.33,7.83,0,*46
1532872984.78,30264,22.81,74360.0,17.75,7.37,7.91,0,*46
1532872985.99,30265,22.81,74366.3,17.73,7.59,8.09,0,*47
1532872987.2,30266,22.81,74362.8,17.69,7.59,8.13,0,*44
1532872988.41,30267,22.81,74364.0,17.73,7.79,8.15,0,*4A
1532872989.62,30268,22.81,74366.8,17.69,7.87,8.27,0,*4E
1532872990.8,30269,22.81,74364.8,17.69,7.79,8.23,0,*4A
1532872992.03,30270,22.81,74364.5,17.69,7.91,8.47,0,*46
1532872993.25,30271,22.81,74364.8,17.69,7.87,8.47,0,*40
1532872994.49,30272,22.81,74364.0,17.67,6.79,7.61,0,*46
1532872995.69,30273,22.81,74362.3,17.65,5.89,6.83,0,*44
1532872996.95,30274,22.81,74360.8,17.63,7.27,8.29,0,*4D
1532872998.15,30275,22.81,74360.8,17.61,7.01,7.91,0,*46
1532872999.38,30276,22.81,74362.3,17.61,7.65,8.47,0,*43
1532873000.59,30277,22.81,74366.0,17.59,7.51,8.09,0,*44
1532873001.8,30278,22.81,74362.3,17.57,8.41,8.87,0,*4D
1532873003.0,30279,22.81,74362.5,17.57,8.29,8.79,0,*43
1532873004.19,30280,22.81,74360.5,17.57,8.79,9.21,0,*4C
1532873005.37,30281,22.81,74360.8,17.57,8.45,8.87,0,*4F
1532873006.58,30282,22.81,74362.8,17.57,8.45,8.89,0,*42
1532873007.81,30283,22.81,74360.3,17.57,8.41,8.89,0,*47
1532873009.02,30284,22.81,74366.0,17.59,8.23,8.61,0,*4C
1532873010.25,30285,22.81,74366.0,17.57,8.29,8.71,0,*48
1532873011.47,30286,22.81,74364.8,17.55,8.27,8.61,0,*46
1532873012.67,30287,22.81,74366.3,17.53,8.69,8.93,0,*46
1532873013.91,30288,22.81,74366.5,17.53,7.87,8.13,0,*4E
1532873015.14,30289,22.81,74364.8,17.55,8.59,8.69,0,*48
1532873016.4,30290,22.81,74362.5,17.51,7.91,7.95,0,*43
1532873017.61,30291,22.81,74366.8,17.49,7.91,8.01,0,*49
1532873018.81,30292,22.81,74366.5,17.51,8.05,8.05,0,*45
1532873020.02,30293,22.81,74362.3,17.43,8.27,8.45,0,*43
1532873021.25,30294,22.81,74364.3,17.45,8.51,8.59,0,*4E
1532873022.49,30295,22.81,74362.5,17.43,8.61,8.55,0,*46
1532873023.72,30296,22.81,74364.5,17.45,8.47,8.29,0,*4C
1532873024.92,30297,22.81,74366.5,17.41,8.33,8.15,0,*45
1532873026.13,30298,22.81,74366.3,17.39,7.29,6.97,0,*45
1532873027.37,30299,22.81,74364.8,17.35,7.69,7.29,0,*48
1532873028.63,30300,22.81,74364.0,17.35,8.75,8.41,0,*4A
1532873029.87,30301,22.81,74364.3,17.35,9.07,8.55,0,*4A
1532873031.1,30302,22.81,74360.5,17.35,9.19,8.61,0,*41
1532873032.37,30303,22.81,74360.3,17.35,9.39,8.93,0,*4F
1532873033.58,30304,22.81,74360.8,17.35,9.07,8.61,0,*48
1532873034.84,30305,22.81,74364.8,17.35,8.37,7.95,0,*4F
1532873036.1,30306,22.81,74360.3,17.31,8.75,8.59,0,*41
1532873037.31,30307,22.81,74366.0,17.31,9.21,8.87,0,*43
1532873038.55,30308,22.81,74366.5,17.31,8.23,7.69,0,*40
1532873039.76,30309,22.81,74366.0,17.31,7.79,7.09,0,*47
1532873040.99,30310,22.81,74366.8,17.27,7.87,7.09,0,*49
1532873042.22,30311,22.81,74368.3,17.27,8.41,7.41,0,*41
1532873043.44,30312,22.81,74368.3,17.27,7.51,6.39,0,*42
1532873044.69,30313,22.81,74364.3,17.23,7.23,6.57,0,*4A
1532873045.9,30314,22.81,74364.3,17.21,7.73,7.55,0,*49
1532873047.11,30315,22.81,74366.8,17.21,8.13,8.01,0,*4F
1532873048.32,30316,22.81,74364.5,17.21,8.01,7.95,0,*4D
1532873049.52,30317,22.81,74368.8,17.19,7.41,7.33,0,*40
1532873050.69,30318,22.81,74368.3,17.17,8.05,8.15,0,*45
1532873051.87,30319,22.81,74366.0,17.17,8.09,8.19,0,*44
1532873053.09,30320,22.81,74366.8,17.17,7.73,7.65,0,*48
1532873054.33,30321,22.81,74366.0,17.13,7.27,7.15,0,*4B
1532873055.56,30322,22.81,74368.0,17.11,7.33,7.11,0,*4B
1532873056.79,30323,22.81,74368.3,17.11,8.09,7.77,0,*4C
1532873058.0,30324,22.81,74366.3,17.09,8.79,8.47,0,*49
1532873059.21,30325,22.81,74364.3,17.09,9.15,8.87,0,*4F
1532873060.42,30326,22.81,74368.3,17.09,9.21,9.01,0,*44
1532873061.65,30327,22.81,74364.8,17.09,8.75,8.47,0,*46
1532873062.86,30328,22.81,74366.8,17.09,8.37,8.01,0,*4D
1532873064.04,30329,22.81,74368.5,17.09,9.03,8.69,0,*44
1532873065.27,30330,22.81,74366.8,17.07,9.11,8.71,0,*48
1532873066.48,30331,22.81,74368.0,17.09,9.25,8.93,0,*4C
1532873067.69,30332,22.81,74364.8,17.05,9.07,8.79,0,*47
1532873068.89,30333,22.81,74364.5,17.05,9.07,8.69,0,*47
1532873070.12,30334,22.81,74368.0,17.05,9.15,8.79,0,*42
1532873071.37,30335,22.81,74364.8,17.01,8.97,8.59,0,*4E
1532873072.6,30336,22.81,74368.8,17.05,9.39,8.87,0,*4F
1532873073.85,30337,22.81,74368.5,17.05,8.97,8.29,0,*4F
1532873075.06,30338,22.81,74370.5,17.05,8.79,8.01,0,*4A
1532873076.32,30339,22.81,74370.0,17.01,8.59,7.61,0,*44
1532873077.5,30340,22.81,74364.3,16.99,8.01,7.01,0,*41
1532873078.72,30341,22.81,74366.3,16.99,8.79,7.77,0,*4E
1532873079.9,30342,22.81,74364.8,16.99,8.65,7.79,0,*4E
1532873081.15,30343,22.81,74368.8,16.97,7.87,7.27,0,*49
1532873082.38,30344,22.81,74368.5,16.97,7.19,6.75,0,*4F
1532873083.62,30345,22.81,74364.3,16.99,6.91,6.65,0,*40
1532873084.8,30346,22.81,74366.5,16.95,7.51,7.51,0,*44
1532873085.98,30347,22.81,74362.5,16.95,7.45,7.51,0,*40
1532873087.22,30348,22.81,74366.5,16.95,6.35,6.65,0,*4F
1532873088.45,30349,22.81,74364.8,16.91,6.39,6.65,0,*46
1532873089.66,30350,22.81,74366.8,16.91,7.37,7.65,0,*40
1532873090.87,30351,22.81,74366.0,16.89,8.01,8.19,0,*46
1532873092.07,30352,22.81,74366.5,16.87,8.23,8.29,0,*48
1532873093.29,30353,22.81,74364.8,16.91,8.13,8.05,0,*43
1532873094.52,30354,22.81,74364.8,16.87,7.87,7.77,0,*4B
1532873095.71,30355,22.81,74366.5,16.87,6.97,6.83,0,*40
1532873096.89,30356,22.81,74366.5,16.87,8.09,8.01,0,*4E
1532873098.12,30357,22.81,74366.5,16.85,7.97,7.91,0,*43
1532873099.38,30358,22.81,74366.3,16.85,7.73,7.69,0,*41
1532873100.59,30359,22.81,74370.0,16.83,8.59,8.19,0,*49
1532873101.8,30360,22.81,74366.8,16.83,8.47,7.97,0,*45
1532873103.04,30361,22.81,74366.8,16.87,8.41,7.73,0,*4C
1532873104.24,30362,22.81,74370.8,16.85,7.59,6.83,0,*45
1532873105.43,30363,22.81,74364.8,16.83,6.21,5.45,0,*45
1532873106.67,30364,22.81,74364.3,16.77,5.93,5.45,0,*43
1532873107.9,30365,22.81,74368.3,16.77,6.07,5.81,0,*44
1532873109.12,30366,22.81,74364.0,16.75,6.69,6.79,0,*49
1532873110.33,30367,22.81,74366.3,16.73,7.69,7.79,0,*4E
1532873111.57,30368,22.81,74362.8,16.75,7.59,7.69,0,*45
1532873112.79,30369,22.81,74362.5,16.73,7.69,7.87,0,*41
1532873114.0,30370,22.81,74366.0,16.75,7.51,7.79,0,*45
1532873115.18,30371,22.81,74366.0,16.73,7.97,8.15,0,*4D
1532873116.39,30372,22.81,74368.0,16.73,7.15,7.37,0,*4B
1532873117.62,30373,22.81,74364.3,16.71,7.91,8.01,0,*4E
1532873118.83,30374,22.81,74360.0,16.69,7.69,7.79,0,*47
1532873120.04,30375,22.81,74362.8,16.65,7.29,7.23,0,*41
1532873121.25,30376,22.81,74366.5,16.65,8.37,8.27,0,*49
1532873122.45,30377,22.81,74360.8,16.65,8.61,8.55,0,*4E
1532873123.68,30378,22.81,74366.0,16.63,7.45,7.23,0,*40
1532873124.88,30379,22.81,74366.8,16.61,7.65,7.37,0,*44
1532873126.06,30380,22.81,74366.0,16.61,8.61,8.15,0,*46
1532873127.32,30381,22.81,74366.8,16.63,8.59,7.95,0,*49
1532873128.53,30382,22.81,74366.3,16.61,7.55,6.87,0,*49
1532873129.76,30383,22.81,74364.5,16.61,7.11,6.43,0,*40
1532873130.94,30384,22.81,74366.5,16.61,6.93,6.75,0,*49
1532873132.19,30385,22.81,74370.0,16.63,6.69,6.65,0,*4E
1532873133.4,30386,22.81,74366.0,16.61,6.35,6.11,0,*45
1532873134.61,30387,22.81,74366.0,16.61,5.95,5.73,0,*4A
1532873135.79,30388,22.81,74360.3,16.61,5.37,5.63,0,*4C
1532873137.02,30389,22.81,74366.0,16.59,6.07,6.65,0,*43
1532873138.23,30390,22.81,74366.5,16.59,6.83,6.97,0,*4A
1532873139.46,30391,22.81,74364.3,16.59,6.53,6.07,0,*4F
1532873140.72,30392,22.81,74366.8,16.59,5.81,6.13,0,*45
1532873141.95,30393,22.81,74366.8,16.59,5.11,5.73,0,*48
1532873143.21,30394,22.81,74364.8,16.59,4.63,5.05,0,*4A
1532873144.42,30395,22.81,74366.5,16.59,4.45,4.89,0,*4A
1532873145.68,30396,22.81,74364.3,16.55,4.63,4.79,0,*4E
1532873146.89,30397,22.81,74370.5,16.55,5.19,5.49,0,*41
1532873148.1,30398,22.81,74364.3,16.55,5.33,5.71,0,*4D
1532873149.29,30399,22.81,74366.8,16.61,5.19,5.19,0,*4D
1532873150.56,30400,22.81,74368.5,16.59,4.31,4.71,0,*45
1532873151.76,30401,22.81,74366.5,16.55,4.53,5.45,0,*4A
1532873152.97,30402,22.81,74366.3,16.55,5.67,6.79,0,*43
1532873154.2,30403,22.81,74366.8,16.55,5.81,6.11,0,*44
1532873155.43,30404,22.81,74366.0,16.55,6.57,6.79,0,*45
1532873156.66,30405,22.81,74364.8,16.55,6.29,6.69,0,*4C
1532873157.89,30406,22.81,74366.3,16.55,6.17,6.79,0,*43
1532873159.13,30407,22.81,74364.0,16.55,6.51,6.83,0,*45
1532873160.38,30408,22.81,74362.5,16.55,6.73,6.73,0,*45
1532873161.59,30409,22.81,74364.5,16.51,6.83,6.83,0,*40
1532873162.83,30410,22.81,74366.8,16.51,6.75,6.91,0,*42
1532873164.08,30411,22.81,74368.3,16.49,6.43,6.91,0,*4F
1532873165.34,30412,22.81,74366.3,16.51,6.57,7.23,0,*48
1532873166.57,30413,22.81,74368.3,16.49,6.65,7.23,0,*41
1532873167.76,30414,22.81,74364.5,16.49,6.21,6.93,0,*4C
1532873169.02,30415,22.81,74362.3,16.51,5.55,6.47,0,*4D
1532873170.27,30416,22.81,74366.3,16.51,5.77,6.57,0,*4F
1532873171.52,30417,22.81,74366.5,16.51,5.67,6.47,0,*4E
1532873172.7,30418,22.81,74370.3,16.49,5.45,6.33,0,*4B
1532873173.92,30419,22.81,74364.8,16.49,5.27,6.43,0,*49
1532873175.16,30420,22.81,74364.3,16.47,5.01,6.21,0,*4D
1532873176.39,30421,22.81,74362.5,16.47,5.41,6.53,0,*4D
1532873177.62,30422,22.81,74364.8,16.47,6.17,7.33,0,*49
1532873178.86,30423,22.81,74366.5,16.47,6.03,6.91,0,*44
1532873180.1,30424,22.81,74366.0,16.47,6.43,7.33,0,*4E
1532873181.34,30425,22.81,74366.5,16.47,6.75,7.69,0,*45
1532873182.61,30426,22.81,74364.8,16.47,6.43,7.65,0,*4F
1532873183.84,30427,22.81,74362.5,16.47,4.57,5.85,0,*45
1532873185.08,30428,22.81,74362.3,16.43,4.71,5.55,0,*47
1532873186.33,30429,22.81,74366.5,16.45,6.51,6.87,0,*4C
1532873187.54,30430,22.81,74366.3,16.43,6.93,7.15,0,*46
1532873188.77,30431,22.81,74368.8,16.43,7.15,7.11,0,*4C
1532873190.01,30432,22.81,74368.3,16.41,6.33,5.89,0,*4B
1532873191.2,30433,22.81,74368.3,16.43,5.45,5.33,0,*4B
1532873192.42,30434,22.81,74366.5,16.43,5.27,5.51,0,*4C
1532873193.64,30435,22.81,74364.8,16.41,4.53,5.07,0,*4E
1532873194.83,30436,22.81,74364.8,16.43,5.07,5.95,0,*44
1532873196.04,30437,22.81,74362.3,16.43,5.89,6.79,0,*42
1532873197.29,30438,22.81,74364.8,16.41,6.53,7.23,0,*45
1532873198.56,30439,22.81,74362.0,16.41,7.15,7.73,0,*42
1532873199.79,30440,22.81,74364.3,16.41,6.93,7.11,0,*47
1532873201.03,30441,22.81,74366.3,16.41,7.61,7.37,0,*4E
1532873202.28,30442,22.81,74368.8,16.41,7.83,7.47,0,*46
1532873203.47,30443,22.81,74366.5,16.43,8.05,7.51,0,*43
1532873204.66,30444,22.81,74366.5,16.43,7.01,6.69,0,*45
1532873205.89,30445,22.81,74368.0,16.41,6.79,6.73,0,*43
1532873207.09,30446,22.81,74366.8,16.41,7.37,7.33,0,*4E
1532873208.33,30447,22.81,74366.8,16.41,7.59,7.23,0,*46
1532873209.53,30448,22.81,74370.0,16.41,7.45,6.83,0,*4F
1532873210.75,30449,22.81,74370.0,16.41,7.37,6.57,0,*42
1532873211.96,30450,22.81,74374.8,16.43,6.83,5.89,0,*46
1532873213.15,30451,22.81,74372.0,16.45,5.29,5.07,0,*44
1532873214.39,30452,22.81,74370.3,16.43,4.63,4.63,0,*4D
1532873215.61,30453,22.81,74368.0,16.43,4.53,4.71,0,*4C
1532873216.82,30454,22.81,74370.0,16.41,4.27,4.33,0,*4C
1532873218.04,30455,22.81,74366.3,16.39,4.33,4.67,0,*46
1532873219.25,30456,22.81,74370.8,16.39,4.79,5.49,0,*46
1532873220.46,30457,22.81,74368.3,16.39,4.45,5.27,0,*40
1532873221.65,30458,22.81,74366.8,16.39,4.07,4.89,0,*4C
1532873222.89,30459,22.81,74370.3,16.39,4.31,5.27,0,*4D
1532873224.1,30460,22.81,74370.8,16.39,3.63,4.79,0,*4D
1532873225.31,30461,22.81,74370.3,16.39,3.07,4.19,0,*48
1532873226.54,30462,22.81,74370.0,16.37,2.69,4.11,0,*44
1532873227.77,30463,22.81,74370.0,16.37,3.19,4.89,0,*42
1532873229.02,30464,22.81,74370.3,16.41,2.85,4.59,0,*4D
1532873230.25,30465,22.81,74370.0,16.39,2.73,4.59,0,*4A
1532873231.49,30466,22.81,74366.5,16.41,3.41,5.45,0,*4A
1532873232.7,30467,22.81,74368.5,16.39,2.59,4.81,0,*45
1532873233.91,30468,22.81,74372.3,16.39,2.25,4.49,0,*45
1532873235.15,30469,22.81,74368.5,16.39,1.97,4.31,0,*41
1532873236.34,30470,22.81,74368.8,16.39,2.31,4.81,0,*4D
1532873237.54,30471,22.81,74372.0,16.39,1.43,3.85,0,*49
1532873238.8,30472,22.81,74368.3,16.37,2.21,4.71,0,*4F
1532873240.04,30473,22.81,74366.3,16.37,1.59,4.33,0,*44
1532873241.28,30474,22.81,74370.5,16.37,3.11,5.67,0,*4D
1532873242.5,30475,22.81,74372.0,16.39,3.71,6.11,0,*46
1532873243.76,30476,22.81,74370.8,16.33,3.67,5.81,0,*42
1532873244.97,30477,22.81,74370.3,16.37,4.11,5.95,0,*44
1532873246.24,30478,22.81,74370.5,16.37,3.41,4.79,0,*4A
1532873247.5,30479,22.81,74370.0,16.33,2.73,4.31,0,*43
1532873248.75,30480,22.81,74372.0,16.29,3.03,4.57,0,*48
1532873249.96,30481,22.81,74374.8,16.31,2.69,4.33,0,*4F
1532873251.2,30482,22.81,74370.0,16.29,3.25,5.01,0,*4C
1532873252.42,30483,22.81,74372.8,16.29,3.25,5.15,0,*48
1532873253.64,30484,22.81,74372.0,16.27,4.37,5.89,0,*40
1532873254.88,30485,22.81,74374.3,16.27,3.37,4.79,0,*48
1532873256.06,30486,22.81,74372.3,16.23,3.55,4.89,0,*44
1532873257.25,30487,22.81,74376.0,16.23,4.19,5.67,0,*4B
1532873258.49,30488,22.81,74372.8,16.23,4.79,6.39,0,*4A
1532873259.69,30489,22.81,74372.0,16.23,4.75,6.29,0,*46
1532873260.93,30490,22.81,74376.5,16.27,5.05,6.69,0,*48
1532873262.15,30491,22.81,74368.5,16.27,4.71,6.21,0,*47
1532873263.36,30492,22.81,74372.0,16.27,4.79,6.33,0,*4F
1532873264.56,30493,22.81,74372.5,16.23,5.11,6.57,0,*47
1532873265.76,30494,22.81,74370.3,16.27,4.89,6.33,0,*46
1532873266.95,30495,22.81,74372.5,16.23,4.53,6.03,0,*47
1532873268.16,30496,22.81,74374.8,16.27,4.81,6.39,0,*46
1532873269.36,30497,22.81,74368.5,16.27,5.15,6.61,0,*46
1532873270.54,30498,22.81,74370.8,16.23,5.33,6.75,0,*4C
1532873271.73,30499,22.81,74372.8,16.27,5.11,6.79,0,*45
1532873272.94,30500,22.81,74376.0,16.27,4.93,6.79,0,*4F
1532873274.16,30501,22.81,74374.3,16.27,4.31,6.21,0,*4B
1532873275.37,30502,22.81,74372.8,16.27,4.67,6.75,0,*4A
1532873276.56,30503,22.81,74372.5,16.27,5.19,7.37,0,*44
1532873277.74,30504,22.81,74372.0,16.23,5.45,7.45,0,*4B
1532873278.95,30505,22.81,74376.5,16.27,5.11,6.91,0,*47
1532873280.13,30506,22.81,74372.0,16.27,5.11,7.01,0,*4C
1532873281.36,30507,22.81,74372.8,16.27,5.51,7.47,0,*4B
1532873282.58,30508,22.81,74374.3,16.29,5.37,7.29,0,*42
1532873283.79,30509,22.81,74372.5,16.29,4.23,6.21,0,*4E
1532873285.02,30510,22.81,74372.8,16.29,4.67,6.79,0,*4B
1532873286.23,30511,22.81,74378.0,16.27,5.19,7.23,0,*42
1532873287.42,30512,22.81,74372.5,16.27,4.89,6.97,0,*47
1532873288.67,30513,22.81,74372.5,16.27,5.01,6.91,0,*41
1532873289.88,30514,22.81,74372.5,16.23,5.01,6.83,0,*41
1532873291.06,30515,22.81,74372.8,16.23,5.15,6.75,0,*4C
1532873292.26,30516,22.81,74372.8,16.23,5.37,6.73,0,*49
1532873293.51,30517,22.81,74374.8,16.21,5.77,6.91,0,*42
1532873294.75,30518,22.81,74372.5,16.21,6.21,7.23,0,*45
1532873295.96,30519,22.81,74370.0,16.23,6.73,7.41,0,*45
1532873297.23,30520,22.81,74370.3,16.21,6.35,6.91,0,*43
1532873298.45,30521,22.81,74372.3,16.19,6.57,6.75,0,*47
1532873299.69,30522,22.81,74372.8,16.19,6.47,6.65,0,*44
1532873300.93,30523,22.81,74372.0,16.21,6.33,6.13,0,*4C
1532873302.14,30524,22.81,74374.3,16.19,5.99,5.73,0,*46
1532873303.38,30525,22.81,74370.3,16.21,6.11,5.81,0,*42
1532873304.6,30526,22.81,74370.5,16.19,6.39,5.99,0,*49
1532873305.85,30527,22.81,74374.0,16.17,6.87,6.53,0,*46
1532873307.09,30528,22.81,74370.8,16.17,7.29,6.87,0,*45
1532873308.3,30529,22.81,74370.0,16.17,7.33,6.93,0,*4A
1532873309.51,30530,22.81,74376.3,16.19,7.33,6.91,0,*4E
1532873310.77,30531,22.81,74370.0,16.21,7.69,7.27,0,*47
1532873312.03,30532,22.81,74372.3,16.21,7.61,7.15,0,*4D
1532873313.23,30533,22.81,74372.5,16.21,7.37,6.79,0,*44
1532873314.44,30534,22.81,74374.3,16.21,7.37,6.79,0,*43
1532873315.64,30535,22.81,74370.8,16.19,6.79,6.57,0,*4E
1532873316.88,30536,22.81,74368.5,16.19,7.23,7.11,0,*40
1532873318.09,30537,22.81,74372.0,16.19,7.11,7.09,0,*49
1532873319.31,30538,22.81,74372.3,16.19,6.75,6.87,0,*42
1532873320.55,30539,22.81,74376.0,16.21,6.91,7.29,0,*47
1532873321.76,30540,22.81,74374.8,16.19,6.75,7.27,0,*46